Flag for U.S.A. Weather past 2 weeks in Grand Rapids, Michigan, U.S.A.

43 °F


Feels Like: 43 °F
Forecast: 41 / 61 °F
Wind: No wind

Location: Kent County International Airport

Current Time: Oct 10, 2015 at 5:11:59 AM

Latest Report: Oct 10, 2015 at 3:53 AM

Visibility: 10 mi

Pressure: 30.24 "Hg

Humidity: 93%

Dew point: 41 °F

Location of Grand RapidsLocation

Historic Weather in Grand Rapids — Graph


Grand Rapids temperature yesterday

Maximum temperature yesterday: 61 °F (at 12:53 AM)
Minimum temperature yesterday: 46 °F (at 11:53 PM)
Average temperature yesterday: 56 °F

Past Weeks' High & Low Weather Summary

High77 °F (Sep 25, 3:53 PM)100% (Sep 25, 7:53 AM)30.42 "Hg (Sep 25, 7:53 AM)
Low40 °F (Oct 1, 7:53 AM)39% (Oct 2, 2:53 PM)29.84 "Hg (Oct 8, 7:53 PM)
Average58 °F80%30.17 "Hg
* Reported Sep 25 3:53 AM — Oct 10 3:53 AM, Grand Rapids, Weather by CustomWeather, © 2015

Note: Actual official high and low records may vary slightly from our data, if they occured in-between our weather recording intervals... More about our weather records


Grand Rapids weather history for previous 24 hours

Time TempWeatherWind HumidityBarometerVisibility
3:53 AM
Sat, Oct 10
43 °FClear.No wind93%30.24 "Hg10 mi
2:53 AM44 °FClear.No wind89%30.24 "Hg10 mi
1:53 AM43 °FClear.No wind93%30.24 "Hg10 mi
12:53 AM45 °FClear.No wind86%30.23 "Hg10 mi
11:53 PM
Fri, Oct 9
46 °FClear.5 mph83%30.24 "Hg10 mi
10:53 PM48 °FClear.7 mph80%30.22 "Hg10 mi
9:53 PM49 °FClear.6 mph77%30.21 "Hg10 mi
8:53 PM51 °FPassing clouds.5 mph74%30.20 "Hg10 mi
7:53 PM53 °FPartly sunny.3 mph69%30.18 "Hg10 mi
6:53 PM56 °FPartly sunny.10 mph62%30.16 "Hg10 mi
5:53 PM58 °FPartly sunny.15 mph58%30.14 "Hg10 mi
4:53 PM59 °FPartly sunny.13 mph58%30.12 "Hg10 mi
3:53 PM60 °FPartly sunny.15 mph56%30.10 "Hg10 mi
2:53 PM61 °FPartly sunny.13 mph54%30.10 "Hg10 mi
1:53 PM59 °FPartly sunny.14 mph62%30.11 "Hg10 mi
12:53 PM57 °FPartly sunny.10 mph72%30.10 "Hg10 mi
11:53 AM58 °FBroken clouds.14 mph70%30.08 "Hg10 mi
10:53 AM55 °FMostly cloudy.14 mph87%30.07 "Hg10 mi
9:53 AM55 °FOvercast.10 mph87%30.04 "Hg10 mi
8:53 AM55 °FMostly cloudy.13 mph87%30.01 "Hg10 mi
7:53 AM55 °FOvercast.13 mph87%29.98 "Hg10 mi
6:53 AM55 °FMostly cloudy.9 mph90%29.96 "Hg10 mi
5:53 AM56 °FOvercast.12 mph90%29.94 "Hg10 mi
Weather by CustomWeather, © 2015

See weather overviewHow to use our weather pages